Location: Miles
(41.4492°N, 81.6087°W)
Time: 18:52:22
(UTC+00:00)

Transit 2A - Pass Details

Date: 20 September 2024
Orbit: 590 x 960 km, 66.7° (Epoch: 05 October)

Event Time Altitude Azimuth Distance (km) Brightness Sun altitude
Rises 23:56:52 0° 240° (WSW) 3,452 10.4 -6.3°
Reaches altitude 10° 23:59:34 10° 251° (WSW) 2,566 9.9 -6.8°
Maximum altitude 00:04:54 32° 313° (NW) 1,555 8.3 -7.8°
Drops below altitude 10° 00:10:31 10° 15° (NNE) 2,696 8.8 -8.8°
Sets 00:13:25 0° 25° (NNE) 3,651 9.3 -9.3°
